Private Wetterstation Wechselburg
Wetterdaten: Montag, 05.12.2016
Datum Zeit Temp. +2m Bodentemp. Temp.+5cm Temp. Wind Windchill X Diff Temp. Feuchte +2m Feuchte +5cm Sonnenschein Luftdruck Regen Wind Richtung Richtung Sonnenschein Taupunkt Windchill Windben
05.12.2016 00:00 -7,6 C 1,6 C -6,9 C -7,7 C -7,8 C 0,0 C 86 % 91 % 0 % 1030,4 hPa 0,0 l/m 0,0 km/h (0 Bft) O-NO 67 0 min -9,5 C -7,8 C 0,0 km/h (0 Bft)
05.12.2016 00:05 -7,7 C 1,6 C -7,1 C -7,7 C -7,7 C 0,0 C 86 % 91 % 0 % 1030,4 hPa 0,0 l/m 0,0 km/h (0 Bft) O-NO 67 0 min -9,6 C -7,7 C 0,0 km/h (0 Bft)
05.12.2016 00:10 -7,7 C 1,6 C -7,1 C -7,8 C -7,9 C 0,0 C 86 % 91 % 0 % 1030,4 hPa 0,0 l/m 0,0 km/h (0 Bft) W-SW 247 0 min -9,6 C -7,9 C 0,0 km/h (0 Bft)
05.12.2016 00:15 -7,7 C 1,6 C -7,0 C -7,8 C -7,9 C 0,0 C 86 % 91 % 0 % 1030,4 hPa 0,0 l/m 0,0 km/h (0 Bft) W-SW 247 0 min -9,6 C -7,9 C 0,0 km/h (0 Bft)
05.12.2016 00:20 -7,7 C 1,6 C -6,9 C -7,8 C -8,0 C 0,0 C 86 % 91 % 0 % 1030,4 hPa 0,0 l/m 0,0 km/h (0 Bft) W-SW 247 0 min -9,6 C -8,0 C 0,0 km/h (0 Bft)
05.12.2016 00:25 -7,7 C 1,7 C -7,1 C -7,9 C -8,3 C 0,0 C 86 % 91 % 0 % 1030,4 hPa 0,0 l/m 0,0 km/h (0 Bft) W-SW 247 0 min -9,6 C -8,3 C 0,0 km/h (0 Bft)
05.12.2016 00:30 -7,7 C 1,7 C -7,1 C -7,9 C -8,3 C 0,0 C 86 % 91 % 0 % 1030,4 hPa 0,0 l/m 0,0 km/h (0 Bft) W-SW 247 0 min -9,6 C -8,3 C 0,0 km/h (0 Bft)
05.12.2016 00:35 -7,9 C 1,7 C -7,1 C -8,1 C -8,5 C 0,0 C 86 % 91 % 0 % 1030,4 hPa 0,0 l/m 0,0 km/h (0 Bft) SW 225 0 min -9,8 C -8,5 C 0,0 km/h (0 Bft)
05.12.2016 00:40 -7,9 C 1,7 C -7,2 C -8,1 C -8,6 C 0,0 C 86 % 91 % 0 % 1030,4 hPa 0,0 l/m 0,0 km/h (0 Bft) SW 225 0 min -9,8 C -8,6 C 0,0 km/h (0 Bft)
05.12.2016 00:45 -8,1 C 1,7 C -7,1 C -8,3 C -8,6 C 0,0 C 86 % 91 % 0 % 1030,4 hPa 0,0 l/m 0,0 km/h (0 Bft) SW 225 0 min -10,0 C -8,6 C 0,0 km/h (0 Bft)
05.12.2016 00:50 -8,1 C 1,7 C -7,1 C -8,3 C -8,6 C 0,0 C 86 % 91 % 0 % 1030,4 hPa 0,0 l/m 0,0 km/h (0 Bft) SW 225 0 min -10,0 C -8,6 C 0,0 km/h (0 Bft)
05.12.2016 00:55 -8,2 C 1,7 C -7,1 C -8,3 C -8,6 C 0,0 C 86 % 91 % 0 % 1030,4 hPa 0,0 l/m 0,0 km/h (0 Bft) SW 225 0 min -10,1 C -8,6 C 0,0 km/h (0 Bft)
05.12.2016 01:00 -8,2 C 1,7 C -6,9 C -8,3 C -8,6 C 0,0 C 86 % 91 % 0 % 1029,7 hPa 0,0 l/m 0,0 km/h (0 Bft) SW 225 0 min -10,1 C -8,6 C 0,0 km/h (0 Bft)
05.12.2016 01:05 -8,2 C 1,7 C -7,1 C -8,3 C -8,5 C 0,0 C 86 % 91 % 0 % 1029,7 hPa 0,0 l/m 0,0 km/h (0 Bft) SW 225 0 min -10,1 C -8,5 C 0,0 km/h (0 Bft)
05.12.2016 01:10 -8,1 C 1,7 C -7,2 C -8,2 C -8,5 C 0,0 C 86 % 91 % 0 % 1029,7 hPa 0,0 l/m 0,0 km/h (0 Bft) SW 225 0 min -10,0 C -8,5 C 0,0 km/h (0 Bft)
05.12.2016 01:15 -8,3 C 1,7 C -7,3 C -8,4 C -8,5 C 0,0 C 86 % 91 % 0 % 1029,7 hPa 0,0 l/m 0,0 km/h (0 Bft) SW 225 0 min -10,2 C -8,5 C 0,0 km/h (0 Bft)
05.12.2016 01:20 -8,3 C 1,7 C -7,3 C -8,4 C -8,5 C 0,0 C 86 % 91 % 0 % 1029,7 hPa 0,0 l/m 0,0 km/h (0 Bft) SW 225 0 min -10,2 C -8,5 C 0,0 km/h (0 Bft)
05.12.2016 01:25 -8,3 C 1,7 C -7,3 C -8,3 C -8,4 C 0,0 C 86 % 91 % 0 % 1029,7 hPa 0,0 l/m 0,0 km/h (0 Bft) SW 225 0 min -10,2 C -8,4 C 0,0 km/h (0 Bft)
05.12.2016 01:30 -8,3 C 1,7 C -7,3 C -8,3 C -8,4 C 0,0 C 86 % 91 % 0 % 1029,7 hPa 0,0 l/m 0,0 km/h (0 Bft) SW 225 0 min -10,2 C -8,4 C 0,0 km/h (0 Bft)
05.12.2016 01:35 -8,3 C 1,7 C -7,3 C -8,4 C -8,5 C 0,0 C 86 % 91 % 0 % 1029,7 hPa 0,0 l/m 0,0 km/h (0 Bft) SW 225 0 min -10,2 C -8,5 C 0,0 km/h (0 Bft)
05.12.2016 01:40 -8,3 C 1,7 C -7,3 C -8,4 C -8,6 C 0,0 C 86 % 91 % 0 % 1029,8 hPa 0,0 l/m 0,0 km/h (0 Bft) SW 225 0 min -10,2 C -8,6 C 0,0 km/h (0 Bft)
05.12.2016 01:45 -8,4 C 1,7 C -7,4 C -8,5 C -8,8 C 0,0 C 86 % 91 % 0 % 1029,8 hPa 0,0 l/m 0,0 km/h (0 Bft) SW 225 0 min -10,3 C -8,8 C 0,0 km/h (0 Bft)
05.12.2016 01:50 -8,5 C 1,7 C -7,3 C -8,6 C -8,9 C 0,0 C 86 % 91 % 0 % 1029,8 hPa 0,0 l/m 0,0 km/h (0 Bft) SW 225 0 min -10,4 C -8,9 C 0,0 km/h (0 Bft)
05.12.2016 01:55 -8,5 C 1,7 C -7,5 C -8,6 C -8,9 C 0,0 C 86 % 90 % 0 % 1029,8 hPa 0,0 l/m 0,0 km/h (0 Bft) SW 225 0 min -10,4 C -8,9 C 0,0 km/h (0 Bft)
05.12.2016 02:00 -8,5 C 1,7 C -7,5 C -8,6 C -8,9 C 0,0 C 86 % 90 % 0 % 1029,8 hPa 0,0 l/m 0,0 km/h (0 Bft) SW 225 0 min -10,4 C -8,9 C 0,0 km/h (0 Bft)
05.12.2016 02:05 -8,5 C 1,7 C -7,5 C -8,7 C -9,0 C 0,0 C 86 % 90 % 0 % 1029,8 hPa 0,0 l/m 0,0 km/h (0 Bft) SW 225 0 min -10,4 C -9,0 C 0,0 km/h (0 Bft)
05.12.2016 02:10 -8,5 C 1,7 C -7,5 C -8,7 C -9,0 C 0,0 C 86 % 90 % 0 % 1029,8 hPa 0,0 l/m 0,0 km/h (0 Bft) NW 315 0 min -10,4 C -9,0 C 0,0 km/h (0 Bft)
05.12.2016 02:15 -8,5 C 1,7 C -7,5 C -8,6 C -8,8 C 0,0 C 86 % 90 % 0 % 1029,8 hPa 0,0 l/m 0,0 km/h (0 Bft) NW 315 0 min -10,4 C -8,8 C 0,0 km/h (0 Bft)
05.12.2016 02:20 -8,5 C 1,7 C -7,6 C -8,6 C -8,7 C 0,0 C 86 % 90 % 0 % 1029,8 hPa 0,0 l/m 0,0 km/h (0 Bft) NW 315 0 min -10,4 C -8,7 C 0,0 km/h (0 Bft)
05.12.2016 02:25 -8,5 C 1,5 C -7,5 C -8,6 C -8,7 C 0,0 C 86 % 90 % 0 % 1029,8 hPa 0,0 l/m 0,0 km/h (0 Bft) NW 315 0 min -10,4 C -8,7 C 0,0 km/h (0 Bft)
05.12.2016 02:30 -8,5 C 1,5 C -7,6 C -8,6 C -8,7 C 0,0 C 86 % 90 % 0 % 1029,8 hPa 0,0 l/m 0,0 km/h (0 Bft) NW 315 0 min -10,4 C -8,7 C 0,0 km/h (0 Bft)
05.12.2016 02:35 -8,5 C 1,5 C -7,6 C -8,6 C -8,7 C 0,0 C 86 % 90 % 0 % 1029,8 hPa 0,0 l/m 0,0 km/h (0 Bft) NW 315 0 min -10,4 C -8,7 C 0,0 km/h (0 Bft)
05.12.2016 02:40 -8,6 C 1,5 C -7,6 C -8,6 C -8,6 C 0,0 C 86 % 90 % 0 % 1029,8 hPa 0,0 l/m 0,0 km/h (0 Bft) NW 315 0 min -10,5 C -8,6 C 0,0 km/h (0 Bft)
05.12.2016 02:45 -8,5 C 1,5 C -7,7 C -8,5 C -8,5 C 0,0 C 86 % 90 % 0 % 1029,8 hPa 0,0 l/m 0,0 km/h (0 Bft) W-NW 292 0 min -10,4 C -8,5 C 0,0 km/h (0 Bft)
05.12.2016 02:50 -8,5 C 1,5 C -7,6 C -8,6 C -8,7 C 0,0 C 86 % 90 % 0 % 1029,8 hPa 0,0 l/m 0,0 km/h (0 Bft) W 270 0 min -10,4 C -8,7 C 0,0 km/h (0 Bft)
05.12.2016 02:55 -8,5 C 1,5 C -7,5 C -8,6 C -8,8 C 0,0 C 86 % 90 % 0 % 1029,8 hPa 0,0 l/m 0,0 km/h (0 Bft) W 270 0 min -10,4 C -8,8 C 0,0 km/h (0 Bft)
05.12.2016 03:00 -8,5 C 1,5 C -7,6 C -8,6 C -8,9 C 0,0 C 86 % 90 % 0 % 1029,2 hPa 0,0 l/m 0,0 km/h (0 Bft) W 270 0 min -10,4 C -8,9 C 0,0 km/h (0 Bft)
05.12.2016 03:05 -8,7 C 1,5 C -7,6 C -8,9 C -9,2 C 0,0 C 86 % 90 % 0 % 1029,2 hPa 0,0 l/m 0,0 km/h (0 Bft) W 270 0 min -10,6 C -9,2 C 0,0 km/h (0 Bft)
05.12.2016 03:10 -8,7 C 1,5 C -7,6 C -8,9 C -9,2 C 0,0 C 86 % 90 % 0 % 1029,2 hPa 0,0 l/m 0,0 km/h (0 Bft) W 270 0 min -10,6 C -9,2 C 0,0 km/h (0 Bft)
05.12.2016 03:15 -8,8 C 1,5 C -7,7 C -8,9 C -9,1 C 0,0 C 86 % 90 % 0 % 1029,2 hPa 0,0 l/m 0,0 km/h (0 Bft) W 270 0 min -10,7 C -9,1 C 0,0 km/h (0 Bft)
05.12.2016 03:20 -8,8 C 1,5 C -7,7 C -8,9 C -9,1 C 0,0 C 86 % 90 % 0 % 1029,2 hPa 0,0 l/m 0,0 km/h (0 Bft) W 270 0 min -10,7 C -9,1 C 0,0 km/h (0 Bft)
05.12.2016 03:25 -8,8 C 1,5 C -7,7 C -8,9 C -9,1 C 0,0 C 86 % 90 % 0 % 1029,2 hPa 0,0 l/m 0,0 km/h (0 Bft) W 270 0 min -10,7 C -9,1 C 0,0 km/h (0 Bft)
05.12.2016 03:30 -8,8 C 1,5 C -7,7 C -8,9 C -9,1 C 0,0 C 86 % 90 % 0 % 1029,2 hPa 0,0 l/m 0,0 km/h (0 Bft) W 270 0 min -10,7 C -9,1 C 0,0 km/h (0 Bft)
05.12.2016 03:35 -8,9 C 1,5 C -7,7 C -9,0 C -9,2 C 0,0 C 86 % 90 % 0 % 1029,2 hPa 0,0 l/m 0,0 km/h (0 Bft) W 270 0 min -10,8 C -9,2 C 0,0 km/h (0 Bft)
05.12.2016 03:40 -8,9 C 1,5 C -7,8 C -9,0 C -9,2 C 0,0 C 86 % 90 % 0 % 1029,2 hPa 0,0 l/m 0,0 km/h (0 Bft) W 270 0 min -10,8 C -9,2 C 0,0 km/h (0 Bft)
05.12.2016 03:45 -8,9 C 1,5 C -7,7 C -9,0 C -9,3 C 0,0 C 86 % 90 % 0 % 1029,2 hPa 0,0 l/m 0,0 km/h (0 Bft) W 270 0 min -10,8 C -9,3 C 0,0 km/h (0 Bft)
05.12.2016 03:50 -8,9 C 1,5 C -7,7 C -9,0 C -9,3 C 0,0 C 86 % 91 % 0 % 1029,2 hPa 0,0 l/m 0,0 km/h (0 Bft) W 270 0 min -10,8 C -9,3 C 0,0 km/h (0 Bft)
05.12.2016 03:55 -8,9 C 1,5 C -7,7 C -9,0 C -9,2 C 0,0 C 86 % 90 % 0 % 1029,2 hPa 0,0 l/m 0,0 km/h (0 Bft) W 270 0 min -10,8 C -9,2 C 0,0 km/h (0 Bft)
05.12.2016 04:00 -8,9 C 1,5 C -7,7 C -9,0 C -9,1 C 0,0 C 86 % 90 % 0 % 1028,7 hPa 0,0 l/m 0,0 km/h (0 Bft) W 270 0 min -10,8 C -9,1 C 0,0 km/h (0 Bft)
05.12.2016 04:05 -8,9 C 1,5 C -7,7 C -8,9 C -9,0 C 0,0 C 86 % 90 % 0 % 1028,7 hPa 0,0 l/m 0,0 km/h (0 Bft) W 270 0 min -10,8 C -9,0 C 0,0 km/h (0 Bft)
05.12.2016 04:10 -8,9 C 1,5 C -7,9 C -8,9 C -9,0 C 0,0 C 86 % 90 % 0 % 1028,7 hPa 0,0 l/m 0,0 km/h (0 Bft) W 270 0 min -10,8 C -9,0 C 0,0 km/h (0 Bft)
05.12.2016 04:15 -8,9 C 1,5 C -7,9 C -8,9 C -8,9 C 0,0 C 86 % 90 % 0 % 1028,7 hPa 0,0 l/m 0,0 km/h (0 Bft) W 270 0 min -10,8 C -8,9 C 0,0 km/h (0 Bft)
05.12.2016 04:20 -8,9 C 1,5 C -7,9 C -8,8 C -8,8 C 0,1 C 86 % 90 % 0 % 1028,9 hPa 0,0 l/m 0,0 km/h (0 Bft) O 90 0 min -10,8 C -8,8 C 0,0 km/h (0 Bft)
05.12.2016 04:25 -8,9 C 1,5 C -7,9 C -8,7 C -8,7 C 0,2 C 86 % 90 % 0 % 1028,9 hPa 0,0 l/m 0,0 km/h (0 Bft) O 90 0 min -10,8 C -8,7 C 0,0 km/h (0 Bft)
05.12.2016 04:30 -8,9 C 1,5 C -7,7 C -8,9 C -8,9 C 0,0 C 86 % 90 % 0 % 1028,9 hPa 0,0 l/m 0,0 km/h (0 Bft) O-SO 112 0 min -10,8 C -8,9 C 0,0 km/h (0 Bft)
05.12.2016 04:35 -8,9 C 1,5 C -7,7 C -9,0 C -9,1 C 0,0 C 86 % 91 % 0 % 1028,9 hPa 0,0 l/m 0,0 km/h (0 Bft) O-SO 112 0 min -10,8 C -9,1 C 0,0 km/h (0 Bft)
05.12.2016 04:40 -8,9 C 1,5 C -7,7 C -9,0 C -9,1 C 0,0 C 86 % 90 % 0 % 1028,9 hPa 0,0 l/m 0,0 km/h (0 Bft) O 90 0 min -10,8 C -9,1 C 0,0 km/h (0 Bft)
05.12.2016 04:45 -8,8 C 1,5 C -7,7 C -8,8 C -8,9 C 0,0 C 86 % 90 % 0 % 1028,9 hPa 0,0 l/m 0,0 km/h (0 Bft) W 270 0 min -10,7 C -8,9 C 0,0 km/h (0 Bft)
05.12.2016 04:50 -8,7 C 1,5 C -7,7 C -8,8 C -9,0 C 0,0 C 86 % 90 % 0 % 1028,9 hPa 0,0 l/m 0,0 km/h (0 Bft) W 270 0 min -10,6 C -9,0 C 0,0 km/h (0 Bft)
05.12.2016 04:55 -8,7 C 1,5 C -7,7 C -8,9 C -9,2 C 0,0 C 86 % 90 % 0 % 1028,9 hPa 0,0 l/m 0,0 km/h (0 Bft) W 270 0 min -10,6 C -9,2 C 0,0 km/h (0 Bft)
05.12.2016 05:00 -8,9 C 1,5 C -7,7 C -9,0 C -9,1 C 0,0 C 86 % 90 % 0 % 1028,9 hPa 0,0 l/m 0,0 km/h (0 Bft) W 270 0 min -10,8 C -9,1 C 0,0 km/h (0 Bft)
05.12.2016 05:05 -8,9 C 1,5 C -7,9 C -9,0 C -9,3 C 0,0 C 86 % 90 % 0 % 1028,9 hPa 0,0 l/m 0,0 km/h (0 Bft) W 270 0 min -10,8 C -9,3 C 0,0 km/h (0 Bft)
05.12.2016 05:10 -8,9 C 1,5 C -7,9 C -9,1 C -9,4 C 0,0 C 86 % 90 % 0 % 1028,9 hPa 0,0 l/m 0,0 km/h (0 Bft) W 270 0 min -10,8 C -9,4 C 0,0 km/h (0 Bft)
05.12.2016 05:15 -9,0 C 1,5 C -7,9 C -9,1 C -9,3 C 0,0 C 86 % 90 % 0 % 1028,9 hPa 0,0 l/m 0,0 km/h (0 Bft) W 270 0 min -10,9 C -9,3 C 0,0 km/h (0 Bft)
05.12.2016 05:20 -8,9 C 1,5 C -7,9 C -9,1 C -9,4 C 0,0 C 86 % 90 % 0 % 1028,9 hPa 0,0 l/m 0,0 km/h (0 Bft) W 270 0 min -10,8 C -9,4 C 0,0 km/h (0 Bft)
05.12.2016 05:25 -8,9 C 1,5 C -7,8 C -9,1 C -9,5 C 0,0 C 86 % 90 % 0 % 1028,9 hPa 0,0 l/m 0,0 km/h (0 Bft) W-SW 247 0 min -10,8 C -9,5 C 0,0 km/h (0 Bft)
05.12.2016 05:30 -9,1 C 1,5 C -7,7 C -9,2 C -9,5 C 0,0 C 86 % 90 % 0 % 1028,9 hPa 0,0 l/m 0,0 km/h (0 Bft) SW 225 0 min -11,0 C -9,5 C 0,0 km/h (0 Bft)
05.12.2016 05:35 -9,1 C 1,5 C -8,0 C -9,2 C -9,5 C 0,0 C 86 % 90 % 0 % 1028,9 hPa 0,0 l/m 0,0 km/h (0 Bft) SW 225 0 min -11,0 C -9,5 C 0,0 km/h (0 Bft)
05.12.2016 05:40 -9,2 C 1,5 C -8,0 C -9,3 C -9,6 C 0,0 C 86 % 90 % 0 % 1028,9 hPa 0,0 l/m 0,0 km/h (0 Bft) W-SW 247 0 min -11,1 C -9,6 C 0,0 km/h (0 Bft)
05.12.2016 05:45 -9,3 C 1,5 C -8,1 C -9,4 C -9,6 C 0,0 C 86 % 90 % 0 % 1028,9 hPa 0,0 l/m 0,0 km/h (0 Bft) SW 225 0 min -11,2 C -9,6 C 0,0 km/h (0 Bft)
05.12.2016 05:50 -9,1 C 1,4 C -8,1 C -9,2 C -9,5 C 0,0 C 86 % 90 % 0 % 1028,9 hPa 0,0 l/m 0,0 km/h (0 Bft) S 180 0 min -11,0 C -9,5 C 0,0 km/h (0 Bft)
05.12.2016 05:55 -9,1 C 1,4 C -7,9 C -9,1 C -9,2 C 0,0 C 86 % 90 % 0 % 1028,9 hPa 0,0 l/m 0,0 km/h (0 Bft) O-NO 67 0 min -11,0 C -9,2 C 0,0 km/h (0 Bft)
05.12.2016 06:00 -9,1 C 1,4 C -8,1 C -9,1 C -9,1 C 0,0 C 86 % 90 % 0 % 1028,9 hPa 0,0 l/m 0,0 km/h (0 Bft) O-NO 67 0 min -11,0 C -9,1 C 0,0 km/h (0 Bft)
05.12.2016 06:05 -9,1 C 1,4 C -8,1 C -9,1 C -9,2 C 0,0 C 86 % 90 % 0 % 1028,9 hPa 0,0 l/m 0,0 km/h (0 Bft) W 270 0 min -11,0 C -9,2 C 0,0 km/h (0 Bft)
05.12.2016 06:10 -9,1 C 1,4 C -8,0 C -9,1 C -9,2 C 0,0 C 86 % 90 % 0 % 1028,9 hPa 0,0 l/m 0,0 km/h (0 Bft) W 270 0 min -11,0 C -9,2 C 0,0 km/h (0 Bft)
05.12.2016 06:15 -9,1 C 1,4 C -8,1 C -9,2 C -9,4 C 0,0 C 86 % 90 % 0 % 1028,9 hPa 0,0 l/m 0,0 km/h (0 Bft) W 270 0 min -11,0 C -9,4 C 0,0 km/h (0 Bft)
05.12.2016 06:20 -9,1 C 1,4 C -8,1 C -9,2 C -9,4 C 0,0 C 86 % 90 % 0 % 1028,9 hPa 0,0 l/m 0,0 km/h (0 Bft) W 270 0 min -11,0 C -9,4 C 0,0 km/h (0 Bft)
05.12.2016 06:25 -9,2 C 1,4 C -8,1 C -9,3 C -9,5 C 0,0 C 86 % 90 % 0 % 1028,9 hPa 0,0 l/m 0,0 km/h (0 Bft) W-NW 292 0 min -11,1 C -9,5 C 0,0 km/h (0 Bft)
05.12.2016 06:30 -9,2 C 1,4 C -8,2 C -9,3 C -9,4 C 0,0 C 86 % 90 % 0 % 1028,9 hPa 0,0 l/m 0,0 km/h (0 Bft) W-NW 292 0 min -11,1 C -9,4 C 0,0 km/h (0 Bft)
05.12.2016 06:35 -9,1 C 1,4 C -8,1 C -9,2 C -9,4 C 0,0 C 86 % 90 % 0 % 1028,9 hPa 0,0 l/m 0,0 km/h (0 Bft) SW 225 0 min -11,0 C -9,4 C 0,0 km/h (0 Bft)
05.12.2016 06:40 -9,1 C 1,4 C -8,1 C -9,2 C -9,4 C 0,0 C 86 % 90 % 0 % 1027,9 hPa 0,0 l/m 0,0 km/h (0 Bft) W 270 0 min -11,0 C -9,4 C 0,0 km/h (0 Bft)
05.12.2016 06:45 -9,2 C 1,4 C -7,9 C -9,3 C -9,4 C 0,0 C 86 % 90 % 0 % 1027,9 hPa 0,0 l/m 0,0 km/h (0 Bft) W-SW 247 0 min -11,1 C -9,4 C 0,0 km/h (0 Bft)
05.12.2016 06:50 -9,2 C 1,4 C -7,7 C -9,2 C -9,3 C 0,0 C 87 % 91 % 0 % 1027,9 hPa 0,0 l/m 0,0 km/h (0 Bft) W-SW 247 0 min -11,0 C -9,3 C 0,0 km/h (0 Bft)
05.12.2016 06:55 -9,1 C 1,4 C -8,0 C -9,2 C -9,3 C 0,0 C 87 % 90 % 0 % 1027,9 hPa 0,0 l/m 0,0 km/h (0 Bft) O-NO 67 0 min -10,9 C -9,3 C 0,0 km/h (0 Bft)
05.12.2016 07:00 -9,1 C 1,4 C -8,1 C -9,2 C -9,3 C 0,0 C 87 % 90 % 0 % 1027,9 hPa 0,0 l/m 0,0 km/h (0 Bft) O-NO 67 0 min -10,9 C -9,3 C 0,0 km/h (0 Bft)
05.12.2016 07:05 -9,2 C 1,4 C -8,1 C -9,2 C -9,2 C 0,0 C 87 % 90 % 0 % 1027,9 hPa 0,0 l/m 0,0 km/h (0 Bft) O-NO 67 0 min -11,0 C -9,2 C 0,0 km/h (0 Bft)
05.12.2016 07:10 -9,2 C 1,5 C -8,1 C -9,2 C -9,3 C 0,0 C 87 % 90 % 0 % 1027,9 hPa 0,0 l/m 0,0 km/h (0 Bft) NO 45 0 min -11,0 C -9,3 C 0,0 km/h (0 Bft)
05.12.2016 07:15 -9,1 C 1,5 C -8,1 C -9,2 C -9,3 C 0,0 C 87 % 90 % 0 % 1027,9 hPa 0,0 l/m 0,0 km/h (0 Bft) NW 315 0 min -10,9 C -9,3 C 0,0 km/h (0 Bft)
05.12.2016 07:20 -9,1 C 1,4 C -8,1 C -9,1 C -9,2 C 0,0 C 87 % 90 % 0 % 1027,9 hPa 0,0 l/m 0,0 km/h (0 Bft) O-NO 67 0 min -10,9 C -9,2 C 0,0 km/h (0 Bft)
05.12.2016 07:25 -9,1 C 1,5 C -8,1 C -9,1 C -9,2 C 0,0 C 87 % 90 % 0 % 1027,9 hPa 0,0 l/m 0,0 km/h (0 Bft) NO 45 0 min -10,9 C -9,2 C 0,0 km/h (0 Bft)
05.12.2016 07:30 -9,1 C 1,5 C -8,1 C -9,2 C -9,3 C 0,0 C 87 % 90 % 0 % 1027,9 hPa 0,0 l/m 0,0 km/h (0 Bft) NO 45 0 min -10,9 C -9,3 C 0,0 km/h (0 Bft)
05.12.2016 07:35 -9,2 C 1,5 C -8,1 C -9,3 C -9,5 C 0,0 C 86 % 90 % 0 % 1027,9 hPa 0,0 l/m 0,0 km/h (0 Bft) SW 225 0 min -11,1 C -9,5 C 0,0 km/h (0 Bft)
05.12.2016 07:40 -9,2 C 1,5 C -8,1 C -9,3 C -9,5 C 0,0 C 86 % 90 % 0 % 1027,9 hPa 0,0 l/m 0,0 km/h (0 Bft) SW 225 0 min -11,1 C -9,5 C 0,0 km/h (0 Bft)
05.12.2016 07:45 -9,2 C 1,5 C -8,1 C -9,3 C -9,4 C 0,0 C 86 % 90 % 0 % 1027,9 hPa 0,0 l/m 0,0 km/h (0 Bft) SW 225 0 min -11,1 C -9,4 C 0,0 km/h (0 Bft)
05.12.2016 07:50 -9,3 C 1,4 C -8,1 C -9,4 C -9,5 C 0,0 C 87 % 90 % 0 % 1027,9 hPa 0,0 l/m 0,0 km/h (0 Bft) SW 225 0 min -11,1 C -9,5 C 0,0 km/h (0 Bft)
05.12.2016 07:55 -9,3 C 1,4 C -8,1 C -9,4 C -9,6 C 0,0 C 86 % 90 % 0 % 1027,9 hPa 0,0 l/m 0,0 km/h (0 Bft) SW 225 0 min -11,2 C -9,6 C 0,0 km/h (0 Bft)
05.12.2016 08:00 -9,3 C 1,4 C -8,1 C -9,4 C -9,5 C 0,0 C 86 % 90 % 0 % 1027,9 hPa 0,0 l/m 0,0 km/h (0 Bft) SW 225 0 min -11,2 C -9,5 C 0,0 km/h (0 Bft)
05.12.2016 08:05 -9,3 C 1,4 C -8,1 C -9,4 C -9,5 C 0,0 C 86 % 90 % 0 % 1027,9 hPa 0,0 l/m 0,0 km/h (0 Bft) SW 225 0 min -11,2 C -9,5 C 0,0 km/h (0 Bft)
05.12.2016 08:10 -9,3 C 1,4 C -8,1 C -9,4 C -9,5 C 0,0 C 86 % 90 % 0 % 1027,9 hPa 0,0 l/m 0,0 km/h (0 Bft) SW 225 0 min -11,2 C -9,5 C 0,0 km/h (0 Bft)
05.12.2016 08:15 -9,3 C 1,4 C -7,9 C -9,3 C -9,4 C 0,0 C 87 % 90 % 0 % 1027,9 hPa 0,0 l/m 0,0 km/h (0 Bft) SW 225 0 min -11,1 C -9,4 C 0,0 km/h (0 Bft)
05.12.2016 08:20 -9,3 C 1,4 C -7,9 C -9,3 C -9,4 C 0,0 C 87 % 90 % 0 % 1028,2 hPa 0,0 l/m 0,0 km/h (0 Bft) SW 225 0 min -11,1 C -9,4 C 0,0 km/h (0 Bft)
05.12.2016 08:25 -9,3 C 1,4 C -7,9 C -9,3 C -9,4 C 0,0 C 87 % 90 % 0 % 1028,2 hPa 0,0 l/m 0,0 km/h (0 Bft) SW 225 0 min -11,1 C -9,4 C 0,0 km/h (0 Bft)
05.12.2016 08:30 -9,3 C 1,4 C -7,9 C -9,3 C -9,3 C 0,0 C 87 % 90 % 0 % 1028,2 hPa 0,0 l/m 0,0 km/h (0 Bft) W 270 0 min -11,1 C -9,3 C 0,0 km/h (0 Bft)
05.12.2016 08:35 -9,3 C 1,4 C -7,9 C -9,2 C -9,2 C 0,1 C 87 % 90 % 3 % 1028,2 hPa 0,0 l/m 0,0 km/h (0 Bft) W 270 0 min -11,1 C -9,2 C 0,0 km/h (0 Bft)
05.12.2016 08:40 -9,2 C 1,4 C -7,7 C -9,0 C -9,0 C 0,2 C 87 % 90 % 5 % 1028,2 hPa 0,0 l/m 0,0 km/h (0 Bft) S 180 0 min -11,0 C -9,0 C 0,0 km/h (0 Bft)
05.12.2016 08:45 -9,2 C 1,4 C -7,8 C -8,9 C -8,9 C 0,3 C 87 % 90 % 8 % 1028,2 hPa 0,0 l/m 0,0 km/h (0 Bft) W-SW 247 0 min -11,0 C -8,9 C 0,0 km/h (0 Bft)
05.12.2016 08:50 -9,2 C 1,4 C -7,7 C -8,9 C -8,9 C 0,3 C 87 % 90 % 8 % 1028,2 hPa 0,0 l/m 0,0 km/h (0 Bft) W-SW 247 0 min -11,0 C -8,9 C 0,0 km/h (0 Bft)
05.12.2016 08:55 -9,1 C 1,4 C -7,6 C -8,8 C -8,8 C 0,3 C 87 % 90 % 8 % 1028,2 hPa 0,0 l/m 0,0 km/h (0 Bft) W-SW 247 0 min -10,9 C -8,8 C 0,0 km/h (0 Bft)
05.12.2016 09:00 -8,9 C 1,4 C -7,4 C -8,5 C -8,5 C 0,4 C 87 % 91 % 11 % 1028,2 hPa 0,0 l/m 0,0 km/h (0 Bft) W-SW 247 0 min -10,7 C -8,5 C 0,0 km/h (0 Bft)
05.12.2016 09:05 -9,0 C 1,4 C -7,3 C -8,4 C -8,4 C 0,6 C 87 % 91 % 16 % 1028,2 hPa 0,0 l/m 0,0 km/h (0 Bft) W-SW 247 0 min -10,8 C -8,4 C 0,0 km/h (0 Bft)
05.12.2016 09:10 -9,0 C 1,4 C -7,3 C -8,4 C -8,4 C 0,6 C 87 % 91 % 16 % 1028,2 hPa 0,0 l/m 0,0 km/h (0 Bft) S 180 0 min -10,8 C -8,4 C 0,0 km/h (0 Bft)
05.12.2016 09:15 -8,9 C 1,4 C -7,3 C -8,1 C -8,1 C 0,8 C 87 % 91 % 21 % 1028,2 hPa 0,0 l/m 0,0 km/h (0 Bft) S 180 0 min -10,7 C -8,1 C 0,0 km/h (0 Bft)
05.12.2016 09:20 -8,9 C 1,4 C -7,1 C -7,8 C -7,8 C 1,1 C 87 % 91 % 29 % 1028,4 hPa 0,0 l/m 0,0 km/h (0 Bft) S 180 0 min -10,7 C -7,8 C 0,0 km/h (0 Bft)
05.12.2016 09:25 -8,8 C 1,4 C -6,9 C -7,5 C -7,5 C 1,3 C 87 % 91 % 34 % 1028,4 hPa 0,0 l/m 0,0 km/h (0 Bft) S 180 0 min -10,6 C -7,5 C 0,0 km/h (0 Bft)
05.12.2016 09:30 -8,7 C 1,4 C -6,8 C -7,4 C -7,4 C 1,3 C 87 % 91 % 34 % 1028,4 hPa 0,0 l/m 0,0 km/h (0 Bft) W-SW 247 0 min -10,5 C -7,4 C 0,0 km/h (0 Bft)
05.12.2016 09:35 -8,3 C 1,4 C -6,6 C -7,2 C -7,2 C 1,1 C 87 % 91 % 29 % 1028,4 hPa 0,0 l/m 0,0 km/h (0 Bft) SW 225 0 min -10,1 C -7,2 C 0,0 km/h (0 Bft)
05.12.2016 09:40 -8,3 C 1,4 C -6,5 C -7,1 C -7,1 C 1,2 C 87 % 91 % 32 % 1028,4 hPa 0,0 l/m 0,0 km/h (0 Bft) W-SW 247 0 min -10,1 C -7,1 C 0,0 km/h (0 Bft)
05.12.2016 09:45 -8,1 C 1,4 C -6,3 C -7,0 C -7,0 C 1,1 C 87 % 91 % 29 % 1028,4 hPa 0,0 l/m 0,0 km/h (0 Bft) W-SW 247 0 min -9,9 C -7,0 C 0,0 km/h (0 Bft)
05.12.2016 09:50 -7,9 C 1,4 C -6,1 C -6,8 C -6,8 C 1,1 C 87 % 91 % 29 % 1028,4 hPa 0,0 l/m 0,0 km/h (0 Bft) W-SW 247 0 min -9,7 C -6,8 C 0,0 km/h (0 Bft)
05.12.2016 09:55 -7,7 C 1,4 C -6,0 C -6,4 C -6,4 C 1,3 C 87 % 91 % 34 % 1028,4 hPa 0,0 l/m 0,0 km/h (0 Bft) W-SW 247 0 min -9,5 C -6,4 C 0,0 km/h (0 Bft)
05.12.2016 10:00 -7,6 C 1,4 C -5,9 C -5,9 C -5,9 C 1,7 C 87 % 91 % 45 % 1028,4 hPa 0,0 l/m 0,0 km/h (0 Bft) W 270 0 min -9,4 C -5,9 C 0,0 km/h (0 Bft)
05.12.2016 10:05 -7,3 C 1,4 C -5,6 C -5,2 C -5,2 C 2,1 C 87 % 91 % 55 % 1028,4 hPa 0,0 l/m 0,0 km/h (0 Bft) W-SW 247 0 min -9,1 C -5,2 C 0,0 km/h (0 Bft)
05.12.2016 10:10 -7,2 C 1,4 C -5,5 C -5,0 C -5,0 C 2,2 C 88 % 91 % 58 % 1028,4 hPa 0,0 l/m 0,0 km/h (0 Bft) W-SW 247 0 min -8,8 C -5,0 C 0,0 km/h (0 Bft)
05.12.2016 10:15 -6,9 C 1,4 C -5,3 C -4,5 C -4,5 C 2,4 C 88 % 91 % 63 % 1028,4 hPa 0,0 l/m 0,0 km/h (0 Bft) W-SW 247 0 min -8,5 C -4,5 C 0,0 km/h (0 Bft)
05.12.2016 10:20 -6,9 C 1,4 C -5,3 C -4,5 C -4,5 C 2,4 C 87 % 91 % 63 % 1028,4 hPa 0,0 l/m 0,0 km/h (0 Bft) S-SW 202 0 min -8,7 C -4,5 C 0,0 km/h (0 Bft)
05.12.2016 10:25 -6,7 C 1,4 C -5,1 C -4,7 C -4,7 C 2,0 C 88 % 91 % 53 % 1028,4 hPa 0,0 l/m 0,0 km/h (0 Bft) W-SW 247 0 min -8,3 C -4,7 C 0,0 km/h (0 Bft)
05.12.2016 10:30 -6,6 C 1,4 C -4,9 C -4,7 C -4,7 C 1,9 C 88 % 91 % 50 % 1028,4 hPa 0,0 l/m 0,0 km/h (0 Bft) O-NO 67 0 min -8,2 C -4,7 C 0,0 km/h (0 Bft)
05.12.2016 10:35 -6,3 C 1,4 C -4,5 C -4,6 C -4,6 C 1,7 C 88 % 91 % 45 % 1028,4 hPa 0,0 l/m 0,0 km/h (0 Bft) W-SW 247 0 min -8,0 C -4,6 C 0,0 km/h (0 Bft)
05.12.2016 10:40 -6,2 C 1,4 C -4,5 C -4,4 C -4,4 C 1,8 C 88 % 91 % 47 % 1028,4 hPa 0,0 l/m 0,0 km/h (0 Bft) W-SW 247 0 min -7,9 C -4,4 C 0,0 km/h (0 Bft)
05.12.2016 10:45 -5,9 C 1,4 C -4,3 C -3,7 C -3,7 C 2,2 C 88 % 91 % 58 % 1028,4 hPa 0,0 l/m 0,0 km/h (0 Bft) SW 225 0 min -7,6 C -3,7 C 0,0 km/h (0 Bft)
05.12.2016 10:50 -5,7 C 1,4 C -4,1 C -3,4 C -3,4 C 2,3 C 88 % 91 % 61 % 1028,4 hPa 0,0 l/m 0,0 km/h (0 Bft) W-SW 247 0 min -7,4 C -3,4 C 0,0 km/h (0 Bft)
05.12.2016 10:55 -5,3 C 1,4 C -3,9 C -2,6 C -2,6 C 2,7 C 88 % 91 % 71 % 1028,4 hPa 0,0 l/m 0,0 km/h (0 Bft) SW 225 0 min -7,0 C -2,6 C 0,0 km/h (0 Bft)
05.12.2016 11:00 -4,9 C 1,5 C -3,7 C -2,2 C -2,2 C 2,7 C 88 % 91 % 71 % 1028,4 hPa 0,0 l/m 0,0 km/h (0 Bft) W-SW 247 0 min -6,6 C -2,2 C 0,0 km/h (0 Bft)
05.12.2016 11:05 -4,7 C 1,4 C -3,3 C -1,5 C -1,5 C 3,2 C 88 % 91 % 84 % 1028,4 hPa 0,0 l/m 0,5 km/h (0 Bft) S 180 0 min -6,4 C -1,5 C 2,7 km/h (1 Bft)
05.12.2016 11:10 -4,5 C 1,3 C -3,3 C -0,8 C -0,8 C 3,7 C 88 % 91 % 97 % 1028,4 hPa 0,0 l/m 0,6 km/h (0 Bft) S-SW 202 5 min -6,2 C -0,8 C 0,0 km/h (0 Bft)
05.12.2016 11:15 -4,3 C 1,3 C -3,2 C 0,5 C 0,5 C 4,8 C 88 % 91 % 100 % 1028,4 hPa 0,0 l/m 0,3 km/h (0 Bft) W-SW 247 5 min -6,0 C 0,5 C 0,0 km/h (0 Bft)
05.12.2016 11:20 -4,1 C 1,5 C -2,9 C 0,5 C 0,5 C 4,6 C 88 % 90 % 100 % 1028,4 hPa 0,0 l/m 0,2 km/h (0 Bft) S-SW 202 5 min -5,8 C 0,5 C 0,0 km/h (0 Bft)
05.12.2016 11:25 -4,1 C 1,3 C -2,9 C 0,2 C 0,2 C 4,3 C 88 % 90 % 100 % 1028,4 hPa 0,0 l/m 0,2 km/h (0 Bft) N 360 5 min -5,8 C 0,2 C 0,0 km/h (0 Bft)
05.12.2016 11:30 -3,7 C 1,5 C -2,7 C 0,8 C 0,8 C 4,5 C 88 % 91 % 100 % 1028,4 hPa 0,0 l/m 0,2 km/h (0 Bft) SW 225 5 min -5,4 C 0,8 C 1,6 km/h (1 Bft)
05.12.2016 11:35 -3,6 C 1,5 C -2,5 C 1,6 C 1,6 C 5,2 C 88 % 90 % 100 % 1028,4 hPa 0,0 l/m 0,5 km/h (0 Bft) W-SW 247 5 min -5,3 C 1,6 C 0,0 km/h (0 Bft)
05.12.2016 11:40 -3,3 C 1,5 C -2,4 C 2,1 C 2,1 C 5,4 C 88 % 90 % 100 % 1027,8 hPa 0,0 l/m 0,5 km/h (0 Bft) W-SW 247 5 min -5,0 C 2,1 C 1,9 km/h (1 Bft)
05.12.2016 11:45 -3,3 C 1,3 C -2,1 C 2,1 C 2,1 C 5,4 C 88 % 90 % 100 % 1027,8 hPa 0,0 l/m 0,5 km/h (0 Bft) SW 225 5 min -5,0 C 2,1 C 2,6 km/h (1 Bft)
05.12.2016 11:50 -3,2 C 1,3 C -2,0 C 1,5 C 1,5 C 4,7 C 88 % 90 % 100 % 1027,8 hPa 0,0 l/m 0,6 km/h (0 Bft) SW 225 5 min -4,9 C 1,5 C 0,0 km/h (0 Bft)
05.12.2016 11:55 -2,9 C 1,3 C -1,9 C 0,7 C 0,7 C 3,6 C 89 % 90 % 95 % 1027,8 hPa 0,0 l/m 0,8 km/h (0 Bft) S-SO 157 5 min -4,5 C 0,7 C 0,0 km/h (0 Bft)
05.12.2016 12:00 -2,9 C 1,3 C -1,7 C 0,3 C 0,3 C 3,2 C 89 % 90 % 84 % 1027,7 hPa 0,0 l/m 0,6 km/h (0 Bft) SW 225 0 min -4,5 C 0,3 C 0,0 km/h (0 Bft)
05.12.2016 12:05 -2,7 C 1,3 C -1,5 C 0,2 C 0,2 C 2,9 C 88 % 90 % 76 % 1027,7 hPa 0,0 l/m 0,6 km/h (0 Bft) SW 225 0 min -4,4 C 0,2 C 0,0 km/h (0 Bft)
05.12.2016 12:10 -2,7 C 1,3 C -1,5 C 0,4 C 0,4 C 3,1 C 88 % 90 % 82 % 1027,7 hPa 0,0 l/m 0,6 km/h (0 Bft) SW 225 0 min -4,4 C 0,4 C 0,0 km/h (0 Bft)
05.12.2016 12:15 -2,5 C 1,3 C -1,3 C 0,3 C 0,3 C 2,8 C 88 % 90 % 74 % 1027,7 hPa 0,0 l/m 1,0 km/h (0 Bft) SW 225 0 min -4,2 C 0,3 C 3,5 km/h (1 Bft)
05.12.2016 12:20 -2,3 C 1,3 C -1,2 C 0,3 C 0,3 C 2,6 C 88 % 90 % 68 % 1027,7 hPa 0,0 l/m 0,8 km/h (0 Bft) SW 225 0 min -4,0 C 0,3 C 1,9 km/h (1 Bft)
05.12.2016 12:25 -2,2 C 1,4 C -0,9 C 0,4 C 0,4 C 2,6 C 88 % 90 % 68 % 1027,7 hPa 0,0 l/m 1,0 km/h (0 Bft) SW 225 0 min -3,9 C 0,4 C 3,9 km/h (1 Bft)
05.12.2016 12:30 -2,0 C 1,3 C -0,8 C 0,4 C 0,4 C 2,4 C 88 % 90 % 63 % 1027,7 hPa 0,0 l/m 1,4 km/h (1 Bft) SW 225 0 min -3,7 C 0,4 C 1,8 km/h (1 Bft)
05.12.2016 12:35 -1,7 C 1,4 C -0,5 C 0,4 C 0,4 C 2,1 C 88 % 90 % 55 % 1027,7 hPa 0,0 l/m 1,3 km/h (1 Bft) SW 225 0 min -3,4 C 0,4 C 4,3 km/h (1 Bft)
05.12.2016 12:40 -1,5 C 1,4 C -0,5 C 1,0 C 1,0 C 2,5 C 88 % 90 % 66 % 1027,7 hPa 0,0 l/m 1,0 km/h (0 Bft) SW 225 0 min -3,2 C 1,0 C 2,7 km/h (1 Bft)
05.12.2016 12:45 -1,3 C 1,4 C -0,5 C 1,1 C 1,1 C 2,4 C 87 % 90 % 63 % 1027,7 hPa 0,0 l/m 1,9 km/h (1 Bft) SW 225 0 min -3,2 C 1,1 C 3,4 km/h (1 Bft)
05.12.2016 12:50 -1,1 C 1,4 C -0,4 C 1,1 C 1,1 C 2,2 C 87 % 91 % 58 % 1027,7 hPa 0,0 l/m 2,6 km/h (1 Bft) SW 225 0 min -3,0 C 1,1 C 3,2 km/h (1 Bft)
05.12.2016 12:55 -0,5 C 1,4 C -0,1 C 0,4 C 0,4 C 0,9 C 86 % 91 % 24 % 1027,7 hPa 0,0 l/m 3,5 km/h (1 Bft) SW 225 0 min -2,5 C 0,4 C 6,1 km/h (2 Bft)
05.12.2016 13:00 -0,3 C 1,4 C -0,1 C 0,2 C 0,2 C 0,5 C 86 % 91 % 13 % 1027,7 hPa 0,0 l/m 3,7 km/h (1 Bft) SW 225 0 min -2,3 C 0,2 C 4,2 km/h (1 Bft)
05.12.2016 13:05 0,3 C 1,4 C 0,1 C 0,9 C 0,9 C 0,6 C 85 % 91 % 16 % 1027,7 hPa 0,0 l/m 3,5 km/h (1 Bft) SW 225 0 min -1,9 C 0,9 C 4,3 km/h (1 Bft)
05.12.2016 13:10 0,8 C 1,4 C 0,2 C 1,1 C 1,1 C 0,3 C 85 % 91 % 8 % 1027,7 hPa 0,0 l/m 3,9 km/h (1 Bft) SW 225 0 min -1,4 C 1,1 C 4,3 km/h (1 Bft)
05.12.2016 13:15 1,3 C 1,4 C 0,3 C 1,3 C 1,3 C 0,0 C 83 % 91 % 0 % 1027,7 hPa 0,0 l/m 3,9 km/h (1 Bft) SW 225 0 min -1,3 C 1,3 C 6,6 km/h (2 Bft)
05.12.2016 13:20 1,6 C 1,3 C 0,4 C 1,5 C 1,2 C 0,0 C 82 % 91 % 0 % 1027,0 hPa 0,0 l/m 3,9 km/h (1 Bft) SW 225 0 min -1,1 C 1,2 C 5,0 km/h (1 Bft)
05.12.2016 13:25 1,9 C 1,3 C 0,6 C 1,8 C 1,6 C 0,0 C 81 % 91 % 0 % 1027,0 hPa 0,0 l/m 3,7 km/h (1 Bft) SW 225 0 min -1,0 C 1,6 C 3,7 km/h (1 Bft)
05.12.2016 13:30 1,9 C 1,3 C 0,7 C 1,9 C 1,9 C 0,0 C 81 % 91 % 0 % 1027,0 hPa 0,0 l/m 2,9 km/h (1 Bft) SW 225 0 min -1,0 C 1,9 C 0,0 km/h (0 Bft)
05.12.2016 13:35 2,1 C 1,3 C 0,7 C 2,7 C 2,7 C 0,6 C 81 % 91 % 16 % 1027,0 hPa 0,0 l/m 2,1 km/h (1 Bft) SW 225 0 min -0,8 C 2,7 C 6,0 km/h (2 Bft)
05.12.2016 13:40 2,3 C 1,3 C 0,8 C 2,9 C 2,9 C 0,6 C 80 % 91 % 16 % 1027,0 hPa 0,0 l/m 2,4 km/h (1 Bft) W-SW 247 0 min -0,8 C 2,9 C 3,1 km/h (1 Bft)
05.12.2016 13:45 2,3 C 1,3 C 0,8 C 3,1 C 3,1 C 0,8 C 79 % 91 % 21 % 1027,0 hPa 0,0 l/m 1,9 km/h (1 Bft) S 180 0 min -1,0 C 3,1 C 0,0 km/h (0 Bft)
05.12.2016 13:50 2,4 C 1,3 C 0,8 C 3,8 C 3,8 C 1,4 C 79 % 91 % 37 % 1027,0 hPa 0,0 l/m 1,1 km/h (1 Bft) S 180 0 min -0,9 C 3,8 C 1,8 km/h (1 Bft)
05.12.2016 13:55 2,7 C 1,3 C 1,0 C 3,8 C 3,8 C 1,1 C 79 % 91 % 29 % 1027,0 hPa 0,0 l/m 1,4 km/h (1 Bft) W-SW 247 0 min -0,6 C 3,8 C 1,6 km/h (1 Bft)
05.12.2016 14:00 2,8 C 1,3 C 1,1 C 3,7 C 3,7 C 0,9 C 78 % 91 % 24 % 1026,6 hPa 0,0 l/m 1,4 km/h (1 Bft) NO 45 0 min -0,6 C 3,7 C 2,4 km/h (1 Bft)
05.12.2016 14:05 2,9 C 1,3 C 1,1 C 3,9 C 3,9 C 1,0 C 78 % 91 % 26 % 1026,6 hPa 0,0 l/m 0,8 km/h (0 Bft) W 270 0 min -0,5 C 3,9 C 0,0 km/h (0 Bft)
05.12.2016 14:10 3,0 C 1,3 C 1,2 C 4,3 C 4,3 C 1,3 C 78 % 91 % 34 % 1026,6 hPa 0,0 l/m 0,8 km/h (0 Bft) S-SO 157 0 min -0,5 C 4,3 C 0,0 km/h (0 Bft)
05.12.2016 14:15 3,1 C 1,3 C 1,3 C 4,9 C 4,9 C 1,8 C 77 % 91 % 47 % 1026,6 hPa 0,0 l/m 0,3 km/h (0 Bft) NW 315 0 min -0,5 C 4,9 C 0,0 km/h (0 Bft)
05.12.2016 14:20 3,1 C 1,3 C 1,3 C 4,9 C 4,9 C 1,8 C 77 % 91 % 47 % 1026,1 hPa 0,0 l/m 0,2 km/h (0 Bft) W 270 0 min -0,5 C 4,9 C 0,0 km/h (0 Bft)
05.12.2016 14:25 3,0 C 1,3 C 1,2 C 5,1 C 5,1 C 2,1 C 77 % 90 % 55 % 1026,1 hPa 0,0 l/m 0,5 km/h (0 Bft) W 270 0 min -0,6 C 5,1 C 0,0 km/h (0 Bft)
05.12.2016 14:30 3,1 C 1,3 C 1,2 C 5,1 C 5,1 C 2,0 C 76 % 90 % 53 % 1026,1 hPa 0,0 l/m 1,0 km/h (0 Bft) SW 225 0 min -0,7 C 5,1 C 0,0 km/h (0 Bft)
05.12.2016 14:35 2,9 C 1,3 C 1,0 C 5,1 C 5,1 C 2,2 C 76 % 90 % 58 % 1026,1 hPa 0,0 l/m 0,8 km/h (0 Bft) SW 225 0 min -0,9 C 5,1 C 0,0 km/h (0 Bft)
05.12.2016 14:40 2,9 C 1,3 C 0,9 C 5,3 C 5,3 C 2,4 C 76 % 90 % 63 % 1026,3 hPa 0,0 l/m 0,5 km/h (0 Bft) W 270 0 min -0,9 C 5,3 C 0,0 km/h (0 Bft)
05.12.2016 14:45 2,9 C 1,3 C 1,1 C 5,6 C 5,6 C 2,7 C 76 % 91 % 71 % 1026,3 hPa 0,0 l/m 0,5 km/h (0 Bft) W-SW 247 0 min -0,9 C 5,6 C 2,3 km/h (1 Bft)
05.12.2016 14:50 2,8 C 1,3 C 1,1 C 5,3 C 5,3 C 2,5 C 76 % 91 % 66 % 1026,3 hPa 0,0 l/m 0,8 km/h (0 Bft) SW 225 0 min -1,0 C 5,3 C 0,0 km/h (0 Bft)
05.12.2016 14:55 2,8 C 1,3 C 0,9 C 3,9 C 3,9 C 1,1 C 76 % 91 % 29 % 1026,3 hPa 0,0 l/m 1,3 km/h (1 Bft) SW 225 0 min -1,0 C 3,9 C 0,0 km/h (0 Bft)
05.12.2016 15:00 2,9 C 1,3 C 0,8 C 3,1 C 3,1 C 0,2 C 76 % 90 % 5 % 1026,6 hPa 0,0 l/m 1,3 km/h (1 Bft) SW 225 0 min -0,9 C 3,1 C 1,8 km/h (1 Bft)
05.12.2016 15:05 2,8 C 1,3 C 0,8 C 2,6 C 2,3 C 0,0 C 76 % 91 % 0 % 1026,6 hPa 0,0 l/m 1,3 km/h (1 Bft) SW 225 0 min -1,0 C 2,3 C 0,0 km/h (0 Bft)
05.12.2016 15:10 2,9 C 1,3 C 0,9 C 2,6 C 2,0 C 0,0 C 76 % 91 % 0 % 1026,6 hPa 0,0 l/m 1,1 km/h (1 Bft) SW 225 0 min -0,9 C 2,0 C 0,0 km/h (0 Bft)
05.12.2016 15:15 2,8 C 1,3 C 0,7 C 2,4 C 1,6 C 0,0 C 76 % 91 % 0 % 1026,6 hPa 0,0 l/m 0,6 km/h (0 Bft) W-SW 247 0 min -1,0 C 1,6 C 0,0 km/h (0 Bft)
05.12.2016 15:20 2,7 C 1,3 C 0,5 C 2,3 C 1,5 C 0,0 C 76 % 91 % 0 % 1026,2 hPa 0,0 l/m 0,5 km/h (0 Bft) W 270 0 min -1,1 C 1,5 C 0,0 km/h (0 Bft)
05.12.2016 15:25 2,7 C 1,3 C 0,3 C 2,2 C 1,2 C 0,0 C 76 % 90 % 0 % 1026,2 hPa 0,0 l/m 0,2 km/h (0 Bft) SW 225 0 min -1,1 C 1,2 C 0,0 km/h (0 Bft)
05.12.2016 15:30 2,4 C 1,3 C 0,0 C 2,0 C 1,1 C 0,0 C 75 % 90 % 0 % 1026,2 hPa 0,0 l/m 0,0 km/h (0 Bft) W-SW 247 0 min -1,6 C 1,1 C 0,0 km/h (0 Bft)
05.12.2016 15:35 2,2 C 1,3 C -0,1 C 1,7 C 0,8 C 0,0 C 75 % 91 % 0 % 1026,2 hPa 0,0 l/m 0,0 km/h (0 Bft) W-SW 247 0 min -1,8 C 0,8 C 0,0 km/h (0 Bft)
05.12.2016 15:40 2,1 C 1,3 C -0,1 C 1,6 C 0,7 C 0,0 C 76 % 91 % 0 % 1026,2 hPa 0,0 l/m 0,0 km/h (0 Bft) SW 225 0 min -1,7 C 0,7 C 0,0 km/h (0 Bft)
05.12.2016 15:45 2,0 C 1,3 C -0,4 C 1,5 C 0,5 C 0,0 C 77 % 91 % 0 % 1026,2 hPa 0,0 l/m 0,0 km/h (0 Bft) SW 225 0 min -1,6 C 0,5 C 0,0 km/h (0 Bft)
05.12.2016 15:50 1,9 C 1,4 C -0,5 C 1,3 C 0,2 C 0,0 C 77 % 90 % 0 % 1026,2 hPa 0,0 l/m 0,0 km/h (0 Bft) W-SW 247 0 min -1,7 C 0,2 C 0,0 km/h (0 Bft)
05.12.2016 15:55 1,6 C 1,4 C -0,8 C 1,0 C -0,3 C 0,0 C 76 % 90 % 0 % 1026,2 hPa 0,0 l/m 0,0 km/h (0 Bft) W-SW 247 0 min -2,2 C -0,3 C 0,0 km/h (0 Bft)
05.12.2016 16:00 1,5 C 1,4 C -1,1 C 0,8 C -0,5 C 0,0 C 76 % 90 % 0 % 1026,2 hPa 0,0 l/m 0,0 km/h (0 Bft) W-SW 247 0 min -2,3 C -0,5 C 0,0 km/h (0 Bft)
05.12.2016 16:05 1,1 C 1,4 C -1,3 C 0,4 C -1,0 C 0,0 C 77 % 90 % 0 % 1026,2 hPa 0,0 l/m 0,0 km/h (0 Bft) W-SW 247 0 min -2,5 C -1,0 C 0,0 km/h (0 Bft)
05.12.2016 16:10 0,8 C 1,4 C -1,5 C 0,1 C -1,2 C 0,0 C 77 % 91 % 0 % 1026,2 hPa 0,0 l/m 0,0 km/h (0 Bft) W-SW 247 0 min -2,8 C -1,2 C 0,0 km/h (0 Bft)
05.12.2016 16:15 0,7 C 1,4 C -1,5 C -0,1 C -1,6 C 0,0 C 76 % 91 % 0 % 1026,2 hPa 0,0 l/m 0,0 km/h (0 Bft) S 180 0 min -3,0 C -1,6 C 0,0 km/h (0 Bft)
05.12.2016 16:20 0,4 C 1,4 C -1,9 C -0,3 C -1,8 C 0,0 C 77 % 91 % 0 % 1026,2 hPa 0,0 l/m 0,0 km/h (0 Bft) S 180 0 min -3,1 C -1,8 C 0,0 km/h (0 Bft)
05.12.2016 16:25 0,0 C 1,4 C -2,1 C -0,8 C -2,3 C 0,0 C 77 % 91 % 0 % 1026,2 hPa 0,0 l/m 0,0 km/h (0 Bft) NW 315 0 min -3,5 C -2,3 C 0,0 km/h (0 Bft)
05.12.2016 16:30 -0,1 C 1,4 C -2,3 C -0,9 C -2,4 C 0,0 C 77 % 91 % 0 % 1026,2 hPa 0,0 l/m 0,0 km/h (0 Bft) NW 315 0 min -3,6 C -2,4 C 0,0 km/h (0 Bft)
05.12.2016 16:35 -0,5 C 1,4 C -2,5 C -1,2 C -2,7 C 0,0 C 78 % 91 % 0 % 1026,2 hPa 0,0 l/m 0,0 km/h (0 Bft) NW 315 0 min -3,9 C -2,7 C 0,0 km/h (0 Bft)
05.12.2016 16:40 -0,7 C 1,4 C -2,7 C -1,4 C -2,9 C 0,0 C 78 % 91 % 0 % 1026,2 hPa 0,0 l/m 0,0 km/h (0 Bft) NW 315 0 min -4,0 C -2,9 C 0,0 km/h (0 Bft)
05.12.2016 16:45 -0,9 C 1,4 C -2,9 C -1,6 C -3,0 C 0,0 C 79 % 91 % 0 % 1026,2 hPa 0,0 l/m 0,0 km/h (0 Bft) NW 315 0 min -4,1 C -3,0 C 0,0 km/h (0 Bft)
05.12.2016 16:50 -1,1 C 1,4 C -2,9 C -1,7 C -3,0 C 0,0 C 79 % 91 % 0 % 1026,2 hPa 0,0 l/m 0,0 km/h (0 Bft) NW 315 0 min -4,3 C -3,0 C 0,0 km/h (0 Bft)
05.12.2016 16:55 -1,3 C 1,4 C -3,1 C -1,9 C -3,1 C 0,0 C 80 % 91 % 0 % 1026,2 hPa 0,0 l/m 0,0 km/h (0 Bft) NW 315 0 min -4,3 C -3,1 C 0,0 km/h (0 Bft)
05.12.2016 17:00 -1,3 C 1,4 C -3,1 C -1,9 C -3,1 C 0,0 C 81 % 91 % 0 % 1026,2 hPa 0,0 l/m 0,0 km/h (0 Bft) NW 315 0 min -4,1 C -3,1 C 0,0 km/h (0 Bft)
05.12.2016 17:05 -1,6 C 1,4 C -2,9 C -2,2 C -3,5 C 0,0 C 81 % 91 % 0 % 1026,2 hPa 0,0 l/m 0,0 km/h (0 Bft) NW 315 0 min -4,4 C -3,5 C 0,0 km/h (0 Bft)
05.12.2016 17:10 -1,5 C 1,4 C -3,1 C -2,2 C -3,6 C 0,0 C 81 % 91 % 0 % 1026,2 hPa 0,0 l/m 0,0 km/h (0 Bft) NW 315 0 min -4,3 C -3,6 C 0,0 km/h (0 Bft)
05.12.2016 17:15 -1,9 C 1,4 C -3,3 C -2,5 C -3,7 C 0,0 C 81 % 91 % 0 % 1026,2 hPa 0,0 l/m 0,0 km/h (0 Bft) NW 315 0 min -4,7 C -3,7 C 0,0 km/h (0 Bft)
05.12.2016 17:20 -2,0 C 1,4 C -3,5 C -2,6 C -3,7 C 0,0 C 81 % 91 % 0 % 1026,2 hPa 0,0 l/m 0,0 km/h (0 Bft) NW 315 0 min -4,8 C -3,7 C 0,0 km/h (0 Bft)
05.12.2016 17:25 -2,1 C 1,4 C -3,5 C -2,7 C -4,0 C 0,0 C 81 % 91 % 0 % 1026,2 hPa 0,0 l/m 0,0 km/h (0 Bft) W-SW 247 0 min -4,9 C -4,0 C 0,0 km/h (0 Bft)
05.12.2016 17:30 -2,3 C 1,4 C -3,7 C -2,9 C -4,2 C 0,0 C 82 % 91 % 0 % 1026,2 hPa 0,0 l/m 0,0 km/h (0 Bft) W-SW 247 0 min -4,9 C -4,2 C 0,0 km/h (0 Bft)
05.12.2016 17:35 -2,5 C 1,4 C -4,0 C -3,0 C -4,1 C 0,0 C 82 % 91 % 0 % 1026,2 hPa 0,0 l/m 0,0 km/h (0 Bft) W-SW 247 0 min -5,1 C -4,1 C 0,0 km/h (0 Bft)
05.12.2016 17:40 -2,5 C 1,4 C -4,0 C -3,0 C -4,1 C 0,0 C 82 % 91 % 0 % 1026,6 hPa 0,0 l/m 0,0 km/h (0 Bft) W-SW 247 0 min -5,1 C -4,1 C 0,0 km/h (0 Bft)
05.12.2016 17:45 -2,7 C 1,4 C -4,0 C -3,2 C -4,2 C 0,0 C 82 % 91 % 0 % 1026,6 hPa 0,0 l/m 0,0 km/h (0 Bft) W-SW 247 0 min -5,3 C -4,2 C 0,0 km/h (0 Bft)
05.12.2016 17:50 -2,8 C 1,4 C -4,0 C -3,3 C -4,2 C 0,0 C 82 % 91 % 0 % 1026,6 hPa 0,0 l/m 0,0 km/h (0 Bft) W-SW 247 0 min -5,4 C -4,2 C 0,0 km/h (0 Bft)
05.12.2016 17:55 -2,9 C 1,4 C -4,1 C -3,3 C -4,2 C 0,0 C 83 % 91 % 0 % 1026,6 hPa 0,0 l/m 0,0 km/h (0 Bft) W-SW 247 0 min -5,4 C -4,2 C 0,0 km/h (0 Bft)
05.12.2016 18:00 -3,1 C 1,4 C -4,2 C -3,5 C -4,3 C 0,0 C 83 % 91 % 0 % 1026,6 hPa 0,0 l/m 0,0 km/h (0 Bft) W-SW 247 0 min -5,6 C -4,3 C 0,0 km/h (0 Bft)
05.12.2016 18:05 -3,2 C 1,4 C -4,3 C -3,6 C -4,5 C 0,0 C 83 % 91 % 0 % 1026,6 hPa 0,0 l/m 0,0 km/h (0 Bft) W-SW 247 0 min -5,7 C -4,5 C 0,0 km/h (0 Bft)
05.12.2016 18:10 -3,3 C 1,4 C -4,3 C -3,7 C -4,5 C 0,0 C 83 % 91 % 0 % 1026,6 hPa 0,0 l/m 0,0 km/h (0 Bft) N-NW 337 0 min -5,8 C -4,5 C 0,0 km/h (0 Bft)
05.12.2016 18:15 -3,3 C 1,4 C -4,3 C -3,7 C -4,5 C 0,0 C 84 % 91 % 0 % 1026,6 hPa 0,0 l/m 0,0 km/h (0 Bft) NW 315 0 min -5,6 C -4,5 C 0,0 km/h (0 Bft)
05.12.2016 18:20 -3,3 C 1,4 C -4,4 C -3,8 C -4,7 C 0,0 C 83 % 91 % 0 % 1026,7 hPa 0,0 l/m 0,0 km/h (0 Bft) NW 315 0 min -5,8 C -4,7 C 0,0 km/h (0 Bft)
05.12.2016 18:25 -3,6 C 1,4 C -4,5 C -4,1 C -5,0 C 0,0 C 83 % 91 % 0 % 1026,7 hPa 0,0 l/m 0,0 km/h (0 Bft) NW 315 0 min -6,1 C -5,0 C 0,0 km/h (0 Bft)
05.12.2016 18:30 -3,7 C 1,5 C -4,7 C -4,1 C -5,0 C 0,0 C 84 % 91 % 0 % 1026,7 hPa 0,0 l/m 0,0 km/h (0 Bft) NW 315 0 min -6,0 C -5,0 C 0,0 km/h (0 Bft)
05.12.2016 18:35 -3,9 C 1,5 C -4,8 C -4,2 C -4,9 C 0,0 C 84 % 91 % 0 % 1026,7 hPa 0,0 l/m 0,0 km/h (0 Bft) N-NW 337 0 min -6,2 C -4,9 C 0,0 km/h (0 Bft)
05.12.2016 18:40 -3,9 C 1,5 C -4,7 C -4,2 C -4,9 C 0,0 C 84 % 91 % 0 % 1026,7 hPa 0,0 l/m 0,0 km/h (0 Bft) N-NW 337 0 min -6,2 C -4,9 C 0,0 km/h (0 Bft)
05.12.2016 18:45 -4,1 C 1,5 C -4,7 C -4,4 C -4,9 C 0,0 C 83 % 91 % 0 % 1026,7 hPa 0,0 l/m 0,0 km/h (0 Bft) N-NW 337 0 min -6,5 C -4,9 C 0,0 km/h (0 Bft)
05.12.2016 18:50 -4,1 C 1,5 C -4,9 C -4,4 C -5,0 C 0,0 C 84 % 91 % 0 % 1026,7 hPa 0,0 l/m 0,0 km/h (0 Bft) N-NW 337 0 min -6,4 C -5,0 C 0,0 km/h (0 Bft)
05.12.2016 18:55 -4,1 C 1,5 C -4,9 C -4,3 C -4,8 C 0,0 C 84 % 91 % 0 % 1026,7 hPa 0,0 l/m 0,0 km/h (0 Bft) O-NO 67 0 min -6,4 C -4,8 C 0,0 km/h (0 Bft)
05.12.2016 19:00 -4,1 C 1,5 C -4,9 C -4,3 C -4,8 C 0,0 C 84 % 91 % 0 % 1027,1 hPa 0,0 l/m 0,0 km/h (0 Bft) O-NO 67 0 min -6,4 C -4,8 C 0,0 km/h (0 Bft)
05.12.2016 19:05 -4,3 C 1,5 C -5,1 C -4,4 C -4,7 C 0,0 C 84 % 91 % 0 % 1027,1 hPa 0,0 l/m 0,0 km/h (0 Bft) O-NO 67 0 min -6,6 C -4,7 C 0,0 km/h (0 Bft)
05.12.2016 19:10 -4,4 C 1,5 C -5,1 C -4,5 C -4,8 C 0,0 C 84 % 91 % 0 % 1027,1 hPa 0,0 l/m 0,0 km/h (0 Bft) O-NO 67 0 min -6,7 C -4,8 C 0,0 km/h (0 Bft)
05.12.2016 19:15 -4,5 C 1,5 C -5,2 C -4,7 C -5,1 C 0,0 C 84 % 91 % 0 % 1027,1 hPa 0,0 l/m 0,0 km/h (0 Bft) O-NO 67 0 min -6,8 C -5,1 C 0,0 km/h (0 Bft)
05.12.2016 19:20 -4,5 C 1,5 C -5,2 C -4,8 C -5,3 C 0,0 C 84 % 91 % 0 % 1027,1 hPa 0,0 l/m 0,0 km/h (0 Bft) O-NO 67 0 min -6,8 C -5,3 C 0,0 km/h (0 Bft)
05.12.2016 19:25 -4,7 C 1,5 C -5,3 C -4,9 C -5,3 C 0,0 C 84 % 91 % 0 % 1027,1 hPa 0,0 l/m 0,0 km/h (0 Bft) O-NO 67 0 min -7,0 C -5,3 C 0,0 km/h (0 Bft)
05.12.2016 19:30 -4,8 C 1,5 C -5,1 C -5,0 C -5,3 C 0,0 C 84 % 91 % 0 % 1027,1 hPa 0,0 l/m 0,0 km/h (0 Bft) O-NO 67 0 min -7,1 C -5,3 C 0,0 km/h (0 Bft)
05.12.2016 19:35 -4,9 C 1,5 C -5,3 C -5,1 C -5,6 C 0,0 C 85 % 91 % 0 % 1027,1 hPa 0,0 l/m 0,0 km/h (0 Bft) O-NO 67 0 min -7,0 C -5,6 C 0,0 km/h (0 Bft)
05.12.2016 19:40 -4,9 C 1,5 C -5,3 C -5,2 C -5,7 C 0,0 C 84 % 91 % 0 % 1027,1 hPa 0,0 l/m 0,0 km/h (0 Bft) O-NO 67 0 min -7,2 C -5,7 C 0,0 km/h (0 Bft)
05.12.2016 19:45 -5,1 C 1,5 C -5,3 C -5,3 C -5,8 C 0,0 C 85 % 91 % 0 % 1027,1 hPa 0,0 l/m 0,0 km/h (0 Bft) O-NO 67 0 min -7,2 C -5,8 C 0,0 km/h (0 Bft)
05.12.2016 19:50 -5,1 C 1,5 C -5,5 C -5,3 C -5,7 C 0,0 C 85 % 91 % 0 % 1027,1 hPa 0,0 l/m 0,0 km/h (0 Bft) O-NO 67 0 min -7,2 C -5,7 C 0,0 km/h (0 Bft)
05.12.2016 19:55 -5,1 C 1,5 C -5,5 C -5,2 C -5,4 C 0,0 C 85 % 91 % 0 % 1027,1 hPa 0,0 l/m 0,0 km/h (0 Bft) O-NO 67 0 min -7,2 C -5,4 C 0,0 km/h (0 Bft)
05.12.2016 20:00 -5,1 C 1,5 C -5,5 C -5,2 C -5,5 C 0,0 C 85 % 91 % 0 % 1027,1 hPa 0,0 l/m 0,0 km/h (0 Bft) SO 135 0 min -7,2 C -5,5 C 0,0 km/h (0 Bft)
05.12.2016 20:05 -5,1 C 1,5 C -5,7 C -5,2 C -5,3 C 0,0 C 85 % 91 % 0 % 1027,1 hPa 0,0 l/m 0,0 km/h (0 Bft) O-NO 67 0 min -7,2 C -5,3 C 0,0 km/h (0 Bft)
05.12.2016 20:10 -5,1 C 1,5 C -5,6 C -5,1 C -5,2 C 0,0 C 85 % 91 % 0 % 1027,1 hPa 0,0 l/m 0,0 km/h (0 Bft) N-NO 22 0 min -7,2 C -5,2 C 0,0 km/h (0 Bft)
05.12.2016 20:15 -5,1 C 1,5 C -5,5 C -5,1 C -5,1 C 0,0 C 85 % 91 % 0 % 1027,1 hPa 0,0 l/m 0,0 km/h (0 Bft) N-NO 22 0 min -7,2 C -5,1 C 0,0 km/h (0 Bft)
05.12.2016 20:20 -5,1 C 1,5 C -5,5 C -5,0 C -5,0 C 0,1 C 85 % 91 % 0 % 1027,1 hPa 0,0 l/m 0,0 km/h (0 Bft) SO 135 0 min -7,2 C -5,0 C 0,0 km/h (0 Bft)
05.12.2016 20:25 -5,1 C 1,5 C -5,6 C -5,0 C -5,0 C 0,1 C 85 % 91 % 0 % 1027,1 hPa 0,0 l/m 0,0 km/h (0 Bft) S-SO 157 0 min -7,2 C -5,0 C 0,0 km/h (0 Bft)
05.12.2016 20:30 -5,1 C 1,5 C -5,7 C -4,8 C -4,8 C 0,3 C 85 % 91 % 0 % 1027,1 hPa 0,0 l/m 0,0 km/h (0 Bft) O-NO 67 0 min -7,2 C -4,8 C 0,0 km/h (0 Bft)
05.12.2016 20:35 -5,1 C 1,5 C -5,7 C -4,6 C -4,6 C 0,5 C 85 % 91 % 0 % 1027,1 hPa 0,0 l/m 0,0 km/h (0 Bft) O-NO 67 0 min -7,2 C -4,6 C 0,0 km/h (0 Bft)
05.12.2016 20:40 -5,1 C 1,5 C -5,7 C -4,6 C -4,6 C 0,5 C 85 % 91 % 0 % 1027,2 hPa 0,0 l/m 0,0 km/h (0 Bft) O-NO 67 0 min -7,2 C -4,6 C 0,0 km/h (0 Bft)
05.12.2016 20:45 -5,1 C 1,5 C -5,7 C -4,6 C -4,6 C 0,5 C 85 % 91 % 0 % 1027,2 hPa 0,0 l/m 0,0 km/h (0 Bft) O-SO 112 0 min -7,2 C -4,6 C 0,0 km/h (0 Bft)
05.12.2016 20:50 -5,1 C 1,5 C -5,7 C -4,6 C -4,6 C 0,5 C 85 % 91 % 0 % 1027,2 hPa 0,0 l/m 0,0 km/h (0 Bft) O 90 0 min -7,2 C -4,6 C 0,0 km/h (0 Bft)
05.12.2016 20:55 -4,9 C 1,5 C -5,7 C -4,6 C -4,6 C 0,3 C 85 % 91 % 0 % 1027,2 hPa 0,0 l/m 0,0 km/h (0 Bft) NO 45 0 min -7,0 C -4,6 C 0,0 km/h (0 Bft)
05.12.2016 21:00 -5,1 C 1,5 C -5,8 C -4,6 C -4,6 C 0,5 C 86 % 91 % 0 % 1027,2 hPa 0,0 l/m 0,0 km/h (0 Bft) O-NO 67 0 min -7,1 C -4,6 C 0,0 km/h (0 Bft)
05.12.2016 21:05 -5,1 C 1,5 C -5,6 C -4,7 C -4,7 C 0,4 C 85 % 91 % 0 % 1027,2 hPa 0,0 l/m 0,0 km/h (0 Bft) O-NO 67 0 min -7,2 C -4,7 C 0,0 km/h (0 Bft)
05.12.2016 21:10 -5,1 C 1,5 C -5,5 C -4,9 C -4,9 C 0,2 C 85 % 91 % 0 % 1027,2 hPa 0,0 l/m 0,0 km/h (0 Bft) O-NO 67 0 min -7,2 C -4,9 C 0,0 km/h (0 Bft)
05.12.2016 21:15 -5,1 C 1,5 C -5,5 C -5,0 C -5,0 C 0,1 C 85 % 91 % 0 % 1027,2 hPa 0,0 l/m 0,0 km/h (0 Bft) SW 225 0 min -7,2 C -5,0 C 0,0 km/h (0 Bft)
05.12.2016 21:20 -5,1 C 1,5 C -5,5 C -5,0 C -5,0 C 0,1 C 86 % 91 % 0 % 1027,2 hPa 0,0 l/m 0,2 km/h (0 Bft) S-SW 202 0 min -7,1 C -5,0 C 0,0 km/h (0 Bft)
05.12.2016 21:25 -4,9 C 1,5 C -5,3 C -4,8 C -4,8 C 0,1 C 86 % 91 % 0 % 1027,2 hPa 0,0 l/m 0,2 km/h (0 Bft) SW 225 0 min -6,9 C -4,8 C 0,0 km/h (0 Bft)
05.12.2016 21:30 -4,9 C 1,5 C -5,3 C -4,7 C -4,7 C 0,2 C 86 % 91 % 0 % 1027,2 hPa 0,0 l/m 0,0 km/h (0 Bft) SW 225 0 min -6,9 C -4,7 C 0,0 km/h (0 Bft)
05.12.2016 21:35 -4,9 C 1,5 C -5,6 C -4,7 C -4,7 C 0,2 C 86 % 91 % 0 % 1027,2 hPa 0,0 l/m 0,0 km/h (0 Bft) O-NO 67 0 min -6,9 C -4,7 C 0,0 km/h (0 Bft)
05.12.2016 21:40 -5,0 C 1,5 C -5,6 C -4,6 C -4,6 C 0,4 C 86 % 91 % 0 % 1027,7 hPa 0,0 l/m 0,0 km/h (0 Bft) O-NO 67 0 min -7,0 C -4,6 C 0,0 km/h (0 Bft)
05.12.2016 21:45 -4,9 C 1,5 C -5,6 C -4,5 C -4,5 C 0,4 C 86 % 91 % 0 % 1027,7 hPa 0,0 l/m 0,2 km/h (0 Bft) N-NO 22 0 min -6,9 C -4,5 C 0,0 km/h (0 Bft)
05.12.2016 21:50 -4,9 C 1,5 C -5,5 C -4,5 C -4,5 C 0,4 C 86 % 91 % 0 % 1027,7 hPa 0,0 l/m 0,2 km/h (0 Bft) W-NW 292 0 min -6,9 C -4,5 C 0,0 km/h (0 Bft)
05.12.2016 21:55 -4,9 C 1,5 C -5,4 C -4,6 C -4,6 C 0,3 C 86 % 91 % 0 % 1027,7 hPa 0,0 l/m 0,0 km/h (0 Bft) O-NO 67 0 min -6,9 C -4,6 C 0,0 km/h (0 Bft)
05.12.2016 22:00 -4,9 C 1,5 C -5,3 C -4,7 C -4,7 C 0,2 C 86 % 91 % 0 % 1028,0 hPa 0,0 l/m 0,0 km/h (0 Bft) O-NO 67 0 min -6,9 C -4,7 C 0,0 km/h (0 Bft)
05.12.2016 22:05 -4,9 C 1,5 C -5,6 C -4,8 C -4,8 C 0,1 C 86 % 91 % 0 % 1028,0 hPa 0,0 l/m 0,0 km/h (0 Bft) O-NO 67 0 min -6,9 C -4,8 C 0,0 km/h (0 Bft)
05.12.2016 22:10 -4,9 C 1,5 C -5,6 C -4,8 C -4,8 C 0,1 C 86 % 91 % 0 % 1028,0 hPa 0,0 l/m 0,0 km/h (0 Bft) O-NO 67 0 min -6,9 C -4,8 C 0,0 km/h (0 Bft)
05.12.2016 22:15 -4,9 C 1,5 C -5,5 C -4,8 C -4,8 C 0,1 C 86 % 91 % 0 % 1028,0 hPa 0,0 l/m 0,0 km/h (0 Bft) O-NO 67 0 min -6,9 C -4,8 C 0,0 km/h (0 Bft)
05.12.2016 22:20 -4,9 C 1,5 C -5,5 C -4,8 C -4,8 C 0,1 C 86 % 91 % 0 % 1028,4 hPa 0,0 l/m 0,0 km/h (0 Bft) S-SO 157 0 min -6,9 C -4,8 C 0,0 km/h (0 Bft)
05.12.2016 22:25 -5,0 C 1,5 C -5,5 C -4,8 C -4,8 C 0,2 C 86 % 91 % 0 % 1028,4 hPa 0,0 l/m 0,0 km/h (0 Bft) O-NO 67 0 min -7,0 C -4,8 C 0,0 km/h (0 Bft)
05.12.2016 22:30 -5,0 C 1,5 C -5,5 C -4,8 C -4,8 C 0,2 C 86 % 91 % 0 % 1028,4 hPa 0,0 l/m 0,0 km/h (0 Bft) NW 315 0 min -7,0 C -4,8 C 0,0 km/h (0 Bft)
05.12.2016 22:35 -4,9 C 1,5 C -5,5 C -4,9 C -5,0 C 0,0 C 86 % 91 % 0 % 1028,4 hPa 0,0 l/m 0,0 km/h (0 Bft) O-NO 67 0 min -6,9 C -5,0 C 0,0 km/h (0 Bft)
05.12.2016 22:40 -4,9 C 1,5 C -5,5 C -4,9 C -5,0 C 0,0 C 86 % 91 % 0 % 1027,8 hPa 0,0 l/m 0,2 km/h (0 Bft) O-NO 67 0 min -6,9 C -5,0 C 0,0 km/h (0 Bft)
05.12.2016 22:45 -5,1 C 1,5 C -5,7 C -5,0 C -5,0 C 0,1 C 86 % 91 % 0 % 1027,8 hPa 0,0 l/m 0,2 km/h (0 Bft) O-NO 67 0 min -7,1 C -5,0 C 0,0 km/h (0 Bft)
05.12.2016 22:50 -5,1 C 1,4 C -5,7 C -5,0 C -5,0 C 0,1 C 86 % 91 % 0 % 1027,8 hPa 0,0 l/m 0,0 km/h (0 Bft) O-NO 67 0 min -7,1 C -5,0 C 0,0 km/h (0 Bft)
05.12.2016 22:55 -5,2 C 1,4 C -5,7 C -5,2 C -5,2 C 0,0 C 86 % 91 % 0 % 1027,8 hPa 0,0 l/m 0,0 km/h (0 Bft) O-NO 67 0 min -7,2 C -5,2 C 0,0 km/h (0 Bft)
05.12.2016 23:00 -5,1 C 1,4 C -5,7 C -5,2 C -5,3 C 0,0 C 86 % 91 % 0 % 1028,4 hPa 0,0 l/m 0,0 km/h (0 Bft) NO 45 0 min -7,1 C -5,3 C 0,0 km/h (0 Bft)
05.12.2016 23:05 -5,1 C 1,4 C -5,7 C -5,2 C -5,4 C 0,0 C 86 % 91 % 0 % 1028,4 hPa 0,0 l/m 0,0 km/h (0 Bft) NO 45 0 min -7,1 C -5,4 C 0,0 km/h (0 Bft)
05.12.2016 23:10 -5,3 C 1,4 C -5,7 C -5,3 C -5,4 C 0,0 C 86 % 91 % 0 % 1028,4 hPa 0,0 l/m 0,0 km/h (0 Bft) NO 45 0 min -7,3 C -5,4 C 0,0 km/h (0 Bft)
05.12.2016 23:15 -5,3 C 1,4 C -5,9 C -5,4 C -5,6 C 0,0 C 86 % 91 % 0 % 1028,4 hPa 0,0 l/m 0,0 km/h (0 Bft) SW 225 0 min -7,3 C -5,6 C 0,0 km/h (0 Bft)
05.12.2016 23:20 -5,3 C 1,4 C -5,7 C -5,4 C -5,6 C 0,0 C 86 % 91 % 0 % 1028,4 hPa 0,0 l/m 0,2 km/h (0 Bft) SW 225 0 min -7,3 C -5,6 C 2,6 km/h (1 Bft)
05.12.2016 23:25 -5,3 C 1,4 C -5,8 C -5,3 C -5,4 C 0,0 C 86 % 91 % 0 % 1028,4 hPa 0,0 l/m 0,5 km/h (0 Bft) S-SO 157 0 min -7,3 C -5,4 C 1,8 km/h (1 Bft)
05.12.2016 23:30 -5,3 C 1,4 C -5,7 C -5,3 C -5,3 C 0,0 C 86 % 91 % 0 % 1028,4 hPa 0,0 l/m 0,6 km/h (0 Bft) SO 135 0 min -7,3 C -5,3 C 0,0 km/h (0 Bft)
05.12.2016 23:35 -5,3 C 1,4 C -5,7 C -5,3 C -5,4 C 0,0 C 86 % 91 % 0 % 1028,4 hPa 0,0 l/m 0,3 km/h (0 Bft) S-SW 202 0 min -7,3 C -5,4 C 1,6 km/h (1 Bft)
05.12.2016 23:40 -5,3 C 1,4 C -5,6 C -5,3 C -5,4 C 0,0 C 86 % 91 % 0 % 1027,6 hPa 0,0 l/m 0,3 km/h (0 Bft) W-SW 247 0 min -7,3 C -5,4 C 2,9 km/h (1 Bft)
05.12.2016 23:45 -5,3 C 1,4 C -5,5 C -5,3 C -5,4 C 0,0 C 86 % 91 % 0 % 1027,6 hPa 0,0 l/m 0,6 km/h (0 Bft) SW 225 0 min -7,3 C -5,4 C 0,0 km/h (0 Bft)
05.12.2016 23:50 -5,3 C 1,4 C -5,3 C -5,3 C -5,4 C 0,0 C 86 % 91 % 0 % 1027,6 hPa 0,0 l/m 0,6 km/h (0 Bft) W-SW 247 0 min -7,3 C -5,4 C 0,0 km/h (0 Bft)
05.12.2016 23:55 -5,3 C 1,4 C -5,3 C -5,3 C -5,4 C 0,0 C 86 % 91 % 0 % 1027,6 hPa 0,0 l/m 0,6 km/h (0 Bft) S-SW 202 0 min -7,3 C -5,4 C 1,8 km/h (1 Bft)
_ Min-Zeit 05:45 11:10 06:30 05:45 05:40 00:00 15:30 01:55 00:00 14:20 - 00:00 - - - 05:45 05:40 00:00
Minimum _ -9,3 C 1,3 C -8,2 C -9,4 C -9,6 C 0,0 C 75 % 90 % 0 % 1026,1 hPa - 0,0 km/h (0 Bft) - - - -11,2 C -9,6 C 0,0 km/h (0 Bft)
_ Max-Zeit 14:15 00:25 14:15 14:45 14:45 11:40 11:55 00:00 11:15 00:00 00:00 13:10 - - 11:10 14:10 14:45 13:15
Maximum _ 3,1 C 1,7 C 1,3 C 5,6 C 5,6 C 5,4 C 89 % 91 % 100 % 1030,4 hPa 0,0 l/m 3,9 km/h
SW (1 Bft)
- - 5 min -0,5 C 5,6 C 6,6 km/h
SW (2 Bft)
Durchschnitt _ -5,2 C 1,5 C -5,0 C -4,7 C -5,0 C 0,5 C 85 % 91 % 13 % 1028,0 hPa #0,0 l/m 0,3 km/h (0 Bft) SW - #50 min. -7,4 C -5,0 C 0,3 km/h (0 Bft)
2016 www.wetterstation-wechselburg.de